Погода в Умани

Погода в Умани : погода сейчас, прогноз погоды и архив. Всё, что Вы хотите узнать о погоде в Умани!

Хотите узнать прогноз погоды в Умани? Тогда Вам сюда: Погода в Умани

Поиск расширенной информации на нашем сайте:

Другие новости

Новости СМИ2

Главная страница сайта

Новости сайта

03.07.2017

Напоминаем, что на нашем специализированном сайте Метеоцентр.Азия вы можете получить высокодетализированные автоматические прогнозы погоды по пунктам России, СНГ и мира в авиационном формате (включающие направление и скорость ветра, видимость, явления погоды, количество и форму облачности, нижнюю и верхнюю границу облачности).


Погода в Умани - сегодня

Время (UTC), дата Ветер
(°,м/с) 
Видим.   Явления Облачность Т
(°С)
Тd
(°С)
f(%) Тe
(°С)
Pmin
(гПа)
dP
(гПа)
Po
(мм)
O2
(г/м3)
Тmin Tmax R s Состояние
почвы
21 17.04.18 тихо ()   н/о    8/0 средняя 
[Ac trans]
+14.3 +4.3 51 +14  1020.2  0.4  746  285           
00 18.04.18 230 (ЮЗ) н/о    10/6 900 м средняя 
[Sc|Ac trans]
+15.3 +4.1 47 +17  1020.3  0.2  746  284           
03 18.04.18 290 (З) н/о    8/8 1080 м 
[Sc]
+14.4 +5.8 56 +15  1021.2  0.8  747  285           
06 18.04.18 300 (СЗ) 20000 м    9/6 600 м средняя 
[Sc|Ac und]
+13.3 +7.6 68 +13  1022.9  1.6  748  286  +13.3  +1.5       
09 18.04.18 340 (С) 20000 м    4/0 средняя 
[Ac und]
+16.5 +2.9 40 +16  1023.5  0.7  748  284           
12 18.04.18 290 (З) 20000 м    ясно 
+19.4 +2 31 +20  1021.9  -1.2  747  281           
15 18.04.18 310 (СЗ) 20000 м    4/4 1000 м 
[Sc]
+19.4 +3 34 +20  1020.8  -1  747  280           
18 18.04.18 330 (СЗ) н/о    6/6 1000 м 
[Sc]
+15.5 +3.8 46 +15  1021.9  0.7  747  284    +20       
21 18.04.18 290 (З) н/о    ясно 
+12.3 +3.8 56 +13  1021.7  -0.5  747  287           
00 19.04.18 300 (СЗ) н/о    ясно 
+11.1 +4 62 +12  1021.1  -0.7  746  288           
03 19.04.18 290 (З) 10 км    10/10 800 м кучево-дожд. 
[Cb calv]
+9.9 +4.3 68 +9  1019.3  -1.9  745  289           
06 19.04.18 320 (СЗ) 10 км    9/9 930 м 
[Sc]
+12.1 +5.6 64 +11  1017.6  -1.4  744  286  +9.7         
09 19.04.18 300 (СЗ) 12  20000 м    8/8 840 м 
[Cu med, cong]
+15.1 +4.3 48 +14  1015.5  -1.8  743  283           
12 19.04.18 330 (СЗ) 12  20000 м    8/5 1000 м верхняя 
[Cu med, cong|Ci fib]
+17.9 +2.7 36 +17  1013.3  -1.9  741  280           
15 19.04.18 310 (СЗ) 13  20000 м    5/5 1000 м 
[Sc]
+17.3 +5.4 45 +16  1012.3  -1  740  280           
18 19.04.18 310 (СЗ) 12  н/о    ясно 
+13.1 +5.5 60 +11  1014  1.3  741  284           
21 19.04.18 300 (СЗ) н/о    9/9 930 м 
[Sc]
+11.9 +5 63 +10  1014.7  0.5  742  286           
00 20.04.18 350 (С) н/о    6/6 1000 м 
[Sc]
+11.1 +4.5 64 +10  1015.9  1.2  743  287           
03 20.04.18 320 (СЗ) 10 км    10/10 900 м 
[Sc]
+9.1 +3.6 68 +7  1017  0.9  743  289           
06 20.04.18 330 (СЗ) 10 км    3/0 средняя 
[Ac trans]
+9.7 +3.4 65 +8  1018.3  1.4  744  289  +9.1         
09 20.04.18 340 (С) 20000 м    5/5 600 м 
[Cu hum]
+14.7 +2.1 42 +14  1018.3  0.4  745  284           
12 20.04.18 310 (СЗ) 12  20000 м    3/3 1000 м 
[Cu hum]
+17 -0.7 30 +16  1018.4  0.2  745  283           
15 20.04.18 350 (С) 12  20000 м    3/3 1000 м 
[Cu hum]
+17 -3 25 +16  1018.6  0.2  745  283        505   
18 20.04.18 330 (СЗ) н/о    9/9 900 м 
[Sc]
+14.1 +1.1 41 +14  1020  1.1  746  286    +17.4       
21 20.04.18 320 (СЗ) н/о    6/6 600 м 
[Sc]
+10.5 +0.9 51 +11  1020.8  0.4  746  289           
Время (UTC), дата Ветер
(°,м/с) 
Видим.   Явления Облачность Т
(°С)
Тd
(°С)
f(%) Тe
(°С)
Pmin
(гПа)
dP
(гПа)
Po
(мм)
O2
(г/м3)
Тmin Tmax R s Состояние
почвы

Для получения пояснительной информации подведите курсор к названию столбца.

ПОГОДА в Умани - архив

Всё, что Вы хотите узнать о погоде в Умани - удобно и подробно!

Выберите нужную дату (начиная с 1 января 2015* года) и нажмите кнопку "Найти".
Будут отображены архивные сводки погоды по пункту Умань, начиная с указанной даты.


Отображать данные в формате CSV (для использования в таблицах Excel)


Внимание! Наш архив погоды предназначен исключительно для личного некоммерческого использования в познавательных целях. Если Вам необходимы официальные справки о состоянии погоды (для производственных, юридических, коммерческих и т.п. целей), обращайтесь в органы Росгидромета.

*Примечание: данная дата относится к архиву по метеостанциям СССР (Россия, СНГ, Балтия).
Архив по метеостанциям Зарубежной Европы и Азии (кроме Китая) хранится 10 дней, по другим регионам земного шара (Китай, Африка, Америка, Австралия, Океания) - 1 день.

Умань - район местоположения метеостанции


Название, широта, долгота, высота метеостанции:
Умань 48.8°ш. 30.2°д. 216 м над ур. моря [Украина]

Дополнительная информация

В oтличие oт бoльшинства пoгoдных сайтoв мы публикуем пoдрoбную метеoинфoрмацию в детальнoм прoфессиoнальнoм фoрмате.

Характеристики температуры и влажнoсти вoздуха измеряются на высoте 2 м в тени вдали oт зданий и деревьев.
Скoрoсть ветра измеряется на высoте 10 м (на урoвне рoста челoвека скoрoсть ветра ниже в 1.5-2 раза). Если метеoстанция нахoдится в гoрoде или в лесу, тo скoрoсть ветра занижена на 2-4 м/с пo сравнению с oткрытым местoм. Скoрoсть ветра над акватoриями крупных рек и oзёр, а также на вершинах хoлмoв на 2-5 м/с выше, чем в oбычных услoвиях.
Атмoсфернoе давление в разных тoчках местнoсти мoжет значительнo oтличаться oт давления на метеoстанции, в зависимoсти oт услoвий рельефа (при пoдъёме на 10 м давление пoнижается примернo на 1 мм рт.ст.).